Wind_Speed
42 44 46 46 50 43 46 49 24 61 55 52 50 49 44 40 38 37 37 37 35 33 32 30 27 24 22 18 17 14 13 10 9 10 11 12 14 16
45 45 47 48 51 53 49 54 37 52 62 54 51 46 41 41 41 39 39 38 36 34 34 31 30 26 24 21 19 16 15 12 10 10 10 12 13 15
47 49 49 50 51 58 57 53 52 45 57 56 44 44 44 42 42 40 40 40 39 37 36 33 31 28 27 24 21 20 17 15 12 11 11 11 13 14
48 52 50 52 51 50 61 61 59 50 56 54 43 37 49 46 43 42 42 42 40 38 38 35 33 30 28 29 23 21 20 17 15 12 12 12 13 14
47 52 53 54 53 51 52 60 54 53 59 60 55 41 42 44 49 45 41 39 41 43 41 38 36 32 32 30 26 23 22 19 17 14 14 13 13 14
49 51 55 56 55 58 62 61 46 57 59 53 51 49 52 50 52 49 46 40 43 44 43 41 40 35 35 32 28 25 25 22 19 17 15 14 14 14
51 53 53 58 58 60 67 59 62 43 55 63 57 49 60 57 58 55 48 40 44 43 46 44 43 39 37 34 33 28 27 25 21 19 16 16 14 15
49 52 56 58 62 63 64 64 74 66 60 55 69 60 61 53 55 55 51 49 55 47 46 43 45 42 38 35 32 27 27 26 23 22 18 18 16 16
47 50 52 58 61 66 66 69 74 72 65 59 60 66 62 61 50 56 56 51 49 41 41 44 44 40 36 35 32 29 29 28 26 23 20 20 18 17
49 49 51 56 59 65 71 74 73 75 69 69 70 69 66 71 62 54 51 42 38 43 45 42 39 39 39 36 34 32 31 29 28 25 22 21 19 18
50 52 51 56 59 64 73 78 78 71 78 78 77 77 70 54 61 52 54 49 54 48 42 39 39 41 39 37 36 35 34 30 30 28 24 22 20 19
51 54 56 57 63 65 72 79 83 74 66 79 76 77 66 52 57 48 51 58 55 46 44 41 41 44 43 39 38 40 36 32 32 30 26 23 22 20
54 56 58 60 65 69 72 81 87 93 76 61 73 74 68 65 59 53 48 58 52 47 39 37 41 41 43 40 40 42 36 34 33 32 28 24 23 22
59 59 61 62 65 71 73 80 85 85 87 77 66 70 72 69 62 62 52 59 52 41 38 35 40 40 38 40 42 40 37 34 34 32 29 27 25 25
57 56 59 61 65 71 73 77 78 82 84 64 69 75 73 66 64 70 55 59 52 46 45 43 39 34 38 43 39 36 38 37 36 34 31 29 25 24
50 52 54 58 64 70 70 73 77 81 84 72 70 76 77 68 64 60 57 58 55 52 50 49 39 37 39 46 45 40 40 39 36 35 32 31 28 26
46 48 51 54 61 66 68 71 77 83 89 75 70 70 77 76 64 58 55 52 58 54 56 53 42 39 41 42 43 41 41 39 37 36 33 31 28 26
46 47 51 54 57 57 60 68 75 86 87 67 60 65 77 77 71 66 61 65 61 60 57 51 39 38 41 44 41 38 37 37 36 33 34 31 27 26
47 49 50 51 53 52 57 66 75 88 90 69 61 69 78 78 71 67 64 66 58 56 56 51 42 38 40 41 39 34 35 33 33 32 31 28 26 27
45 48 48 51 49 54 58 63 75 83 87 61 51 68 79 81 70 69 65 67 60 62 58 56 45 39 38 35 33 34 34 35 33 32 30 29 29 32
42 43 45 47 46 54 50 60 76 82 85 57 50 72 78 72 68 65 64 69 61 63 59 53 40 39 34 35 36 37 37 36 35 35 33 32 33 33
38 40 40 41 47 52 42 61 79 84 80 54 51 71 72 67 68 62 65 74 65 59 54 49 50 43 38 35 36 37 36 37 38 37 38 36 34 32
34 37 40 41 51 55 39 56 71 70 50 45 54 72 71 60 65 62 62 72 59 61 63 54 54 43 44 39 37 37 37 36 36 36 35 34 32 30
Wind_Direction
222 220 222 221 206 212 209 226 240 207 209 211 211 216 216 218 219 217 217 218 219 218 219 223 227 229 234 235 240 247 257 266 287 306 323 337 346 351
223 222 223 223 216 204 215 206 206 203 213 218 213 217 215 220 221 221 220 220 221 221 223 224 226 227 233 235 239 245 254 264 277 294 313 327 335 342
222 223 222 223 221 208 216 213 218 227 217 217 230 218 222 221 224 221 221 221 222 222 226 226 226 227 232 235 237 244 250 259 267 285 301 315 323 335
222 223 222 222 223 218 214 214 206 204 221 219 233 230 219 223 229 228 224 221 222 225 227 228 228 227 231 236 238 242 250 256 265 277 290 303 315 325
226 224 222 221 219 214 209 211 216 219 221 226 228 225 235 221 230 230 230 226 223 225 227 228 229 227 230 236 237 241 248 253 259 268 281 294 305 315
231 225 223 222 219 213 211 214 210 211 218 222 227 226 226 234 230 234 228 225 226 226 228 228 232 228 229 234 237 239 246 250 256 263 272 284 296 307
229 227 223 222 220 217 214 214 203 195 211 226 220 220 220 216 223 229 232 226 227 228 231 229 233 229 230 230 236 235 244 249 253 259 268 277 288 300
230 225 223 222 219 220 220 210 214 217 214 216 217 222 221 223 223 226 231 228 224 225 229 231 234 234 233 233 238 237 243 248 250 256 263 272 281 290
231 229 224 223 220 218 219 215 217 219 215 212 223 224 225 218 228 220 229 231 225 229 233 232 235 237 236 236 237 236 239 244 248 251 259 267 276 285
235 230 226 223 222 220 217 216 212 215 218 216 220 222 230 230 228 229 229 228 230 229 232 232 231 234 235 235 235 234 236 240 246 249 253 262 270 279
235 234 230 226 222 222 219 217 215 209 213 216 218 219 224 221 218 223 222 215 223 225 230 228 222 230 233 233 234 235 236 238 244 247 249 255 263 271
241 232 227 227 223 223 221 219 216 204 203 201 210 216 220 213 217 229 222 215 221 222 223 226 225 229 228 225 229 232 233 235 242 246 248 252 257 264
251 240 234 226 222 221 224 220 217 215 209 204 205 216 219 213 218 228 223 212 224 226 224 230 234 231 231 226 229 232 231 234 239 245 248 250 256 261
252 244 236 228 223 222 224 221 222 218 219 215 203 207 222 215 220 217 220 213 220 218 223 232 238 235 231 228 228 231 231 234 238 243 245 247 250 256
250 242 232 227 224 224 224 221 223 216 214 206 208 218 218 216 213 217 220 219 218 211 208 222 231 228 221 225 227 228 229 231 236 240 243 246 248 251
243 236 230 225 224 224 226 222 222 212 207 206 200 205 215 213 216 214 217 209 214 206 209 219 222 222 221 221 223 221 223 228 233 236 238 242 245 248
231 229 228 225 225 225 226 222 217 210 208 206 195 197 212 208 208 208 208 211 208 207 212 218 217 217 221 223 225 224 224 229 232 234 236 241 244 246
223 225 225 223 226 227 226 224 213 207 205 203 191 194 211 209 206 206 213 219 214 206 213 219 217 218 220 225 225 224 222 225 230 231 234 237 242 245
223 224 223 224 223 224 223 219 208 203 200 197 189 193 210 210 208 206 209 210 208 207 215 221 218 221 223 227 227 222 225 226 230 231 233 236 240 243
222 222 221 222 222 220 214 209 204 203 195 191 194 195 204 209 205 204 205 204 207 204 213 220 217 220 223 227 226 222 225 226 228 230 231 235 237 241
220 220 220 222 221 208 202 203 199 198 198 207 199 199 201 204 205 205 208 205 212 208 213 219 216 217 220 221 216 217 220 222 224 227 229 232 237 244
222 221 222 220 206 189 186 197 195 190 198 206 202 203 200 205 207 207 210 207 209 211 213 215 214 216 221 224 221 222 224 225 226 226 229 234 238 246
223 224 215 209 193 184 179 195 197 186 191 197 202 200 200 202 206 205 209 207 208 208 211 211 217 216 221 222 221 225 226 226 229 231 234 238 243 244
Height
3002 3007 3013 3019 3028 3034 3045 3054 3059 3062 3069 3075 3085 3092 3100 3107 3114 3120 3126 3132 3137 3142 3145 3149 3155 3158 3161 3163 3165 3166 3167 3167 3168 3167 3167 3165 3163 3160
2992 2997 3005 3011 3019 3027 3035 3045 3055 3057 3062 3070 3077 3087 3095 3102 3108 3114 3120 3126 3132 3137 3141 3145 3149 3153 3156 3159 3161 3164 3164 3165 3165 3165 3164 3163 3161 3158
2982 2988 2996 3002 3009 3018 3026 3034 3043 3053 3056 3063 3073 3080 3088 3094 3100 3108 3113 3120 3126 3131 3134 3140 3144 3148 3151 3154 3157 3160 3160 3162 3161 3162 3162 3161 3159 3156
2972 2977 2985 2991 2998 3007 3016 3026 3035 3042 3049 3055 3063 3071 3079 3087 3095 3102 3107 3113 3119 3125 3129 3135 3138 3143 3146 3149 3153 3155 3157 3158 3158 3158 3158 3158 3156 3154
2959 2965 2974 2980 2988 2996 3004 3013 3022 3030 3039 3045 3053 3065 3073 3081 3086 3092 3100 3107 3112 3116 3122 3128 3132 3137 3140 3143 3147 3150 3152 3153 3154 3155 3155 3155 3153 3152
2946 2953 2962 2968 2976 2984 2991 3004 3013 3021 3027 3035 3043 3054 3065 3071 3077 3084 3091 3097 3104 3109 3115 3121 3124 3131 3133 3137 3141 3144 3146 3148 3150 3151 3151 3151 3150 3149
2930 2938 2947 2955 2963 2971 2980 2992 2999 3006 3016 3023 3032 3042 3052 3060 3064 3072 3082 3092 3097 3101 3106 3111 3118 3123 3127 3131 3135 3137 3141 3143 3145 3146 3147 3147 3146 3145
2915 2922 2931 2938 2950 2959 2966 2977 2985 2994 3004 3012 3017 3029 3039 3048 3055 3064 3075 3080 3083 3088 3098 3105 3109 3114 3121 3124 3130 3132 3135 3138 3140 3141 3142 3142 3142 3141
2901 2907 2916 2924 2933 2943 2953 2962 2970 2980 2989 2997 3008 3019 3027 3035 3048 3057 3063 3071 3078 3089 3094 3095 3102 3109 3115 3120 3124 3126 3128 3131 3134 3135 3137 3137 3138 3138
2887 2894 2901 2908 2918 2927 2937 2946 2957 2967 2976 2987 2993 3005 3015 3028 3040 3050 3058 3072 3076 3077 3079 3085 3095 3100 3106 3113 3117 3119 3120 3124 3127 3129 3131 3131 3133 3133
2872 2877 2886 2893 2901 2910 2920 2929 2943 2952 2964 2973 2982 2993 3003 3018 3033 3036 3043 3052 3054 3064 3072 3080 3086 3089 3097 3104 3109 3112 3114 3117 3120 3122 3124 3125 3126 3127
2851 2859 2869 2877 2883 2892 2901 2913 2925 2941 2949 2960 2971 2982 2994 3005 3015 3025 3032 3039 3047 3053 3062 3071 3076 3080 3085 3093 3100 3101 3106 3109 3113 3115 3117 3119 3120 3121
2829 2839 2848 2858 2867 2875 2883 2897 2912 2926 2936 2948 2959 2972 2981 2991 3001 3013 3019 3030 3038 3048 3060 3064 3067 3074 3077 3084 3091 3093 3098 3102 3105 3107 3111 3112 3114 3115
2809 2818 2827 2837 2846 2856 2865 2880 2890 2905 2918 2934 2943 2952 2962 2977 2990 3001 3012 3021 3031 3044 3052 3056 3057 3062 3070 3075 3080 3086 3089 3094 3097 3100 3103 3105 3107 3108
2793 2800 2809 2818 2826 2836 2847 2860 2870 2886 2902 2915 2928 2940 2952 2969 2979 2991 3003 3011 3020 3029 3038 3042 3047 3054 3058 3065 3072 3078 3081 3084 3088 3091 3095 3097 3100 3101
2779 2784 2792 2801 2808 2819 2830 2840 2850 2870 2887 2902 2913 2925 2941 2955 2966 2977 2987 2999 3007 3015 3026 3031 3037 3044 3049 3053 3060 3067 3070 3074 3080 3083 3086 3088 3091 3094
2766 2771 2776 2783 2790 2799 2810 2823 2836 2854 2869 2887 2898 2911 2926 2940 2953 2963 2976 2987 2996 3006 3013 3020 3028 3035 3041 3045 3049 3057 3062 3065 3071 3074 3077 3080 3083 3086
2753 2757 2763 2769 2777 2788 2797 2808 2822 2840 2856 2876 2884 2894 2911 2926 2938 2950 2966 2977 2986 2995 3003 3013 3020 3026 3030 3035 3041 3048 3053 3057 3062 3067 3069 3071 3076 3078
2739 2744 2750 2757 2766 2775 2784 2795 2810 2828 2849 2862 2869 2880 2899 2914 2924 2938 2953 2964 2974 2985 2995 3005 3010 3016 3021 3028 3034 3042 3046 3050 3055 3059 3063 3065 3069 3071
2727 2732 2738 2746 2755 2762 2773 2783 2800 2815 2834 2848 2856 2868 2885 2898 2912 2926 2941 2953 2963 2974 2983 2992 2999 3007 3015 3023 3029 3034 3038 3042 3047 3051 3055 3057 3060 3060
2716 2721 2727 2734 2743 2753 2764 2774 2792 2807 2825 2837 2844 2858 2873 2889 2903 2918 2932 2943 2954 2963 2972 2984 2997 3002 3007 3012 3016 3022 3027 3032 3036 3041 3045 3047 3049 3051
2707 2711 2717 2723 2732 2745 2755 2767 2785 2800 2816 2829 2836 2851 2866 2881 2894 2907 2920 2931 2941 2955 2971 2978 2981 2991 2997 3004 3009 3014 3018 3022 3026 3030 3033 3037 3041 3043
2699 2704 2708 2715 2724 2738 2749 2763 2781 2794 2809 2820 2831 2845 2861 2872 2886 2898 2910 2922 2934 2947 2955 2965 2972 2979 2987 2993 2999 3004 3010 3014 3017 3021 3026 3030 3033 3036